カタログに戻る

CZ-4 DEB

運用中PO
NORAD 35270·DEBRIS·🇨🇳 China

打ち上げ Sep 8, 2004 から Taiyuan Satellite Launch Center

Loading…

次のパス (今後24時間)

TLE

最新Source: Space-Track

元期: Sep 13, 2026, 03:28 UTC

1 35270U 04035N   26256.14483085  .00044506  00000-0  12412-2 0  9994
2 35270  97.8743 210.9359 0045574 177.2137 182.9368 15.35561829165047

AllMySatでCZ-4 DEBをリアルタイム追跡

Download on the App Store